FENGYUN 1C DEB, 32212

Orbit data source: Space-Track

FENGYUN 1C DEB, 32212 is space debris in SSO originally from a launch on Mon, 10 May 1999 UTC launched from the Taiyaun Space Center, China (TSC). Fengyun 1C debris stems from the Chinese weather satellite Fengyun-1C, which was intentionally destroyed by a Chinese anti-satellite missile in 2007. This event dramatically increased the amount of space debris, with thousands of trackable fragments posing hazards to satellites and human spaceflight. The Fengyun 1C debris cloud has become a focal point in discussions about space sustainability and the need for international regulations to prevent the creation of new debris.

Loading next visibility...
Identifier
32212, 1999-025CVJ
Orbit
SSO
Country
Flag of CNCN / PRC
Related business
Manufacturer
Unknown
Mission
Spacecraft
Bus & Motor
Unknown
Mass
Unknown
Launch date (UTC)
1999-05-10 (27 years ago)
Launch vehicle
Unknown
Launch site
Taiyaun Space Center, China (TSC)
Object type
Payload
Rocket body
Debris
Shape & HBR
Unknown shape, 0.1 m
Radar Cross Section
Small (<0.1 m²)

Expand to show TLE details & history
Last TLE update: 2 days ago

TLE from 2 days ago
0 FENGYUN 1C DEB
1 32212U 99025CVJ 26174.11877020  .00001047  00000-0  30924-3 0  9994
2 32212  99.5843 298.6378 0135446 239.8628 296.7170 14.40981134988310
Epoch: 2026-06-23T02:51Z
TLE epoch observation values (Epoch: 2026-06-23T02:51:01.745Z)
Latitude
4.66164°
Longitude
165.37028°
Altitude
715.295 km
Speed
7.52 km/s
True Right ascension
07h 57m 41s
True Declination
4° 38' 01"
Sunlit
Object was in daylight at epoch
Visualization orbit readout
Latitude
Unknown
Longitude
Unknown
Altitude
Unknown
Speed
Unknown
Apparent Right ascension
Unknown
Apparent Declination
Unknown
Sunlit
N/A
Visualization observer readout
Local Sidereal Time
16:28:32
Azimuth
Unknown
Elevation
Unknown
Doppler factor
Unknown
Orbital elements
Apogee altitude
849.014 km
Perigee altitude
655.852 km
Semi-major axis
7,130.57 km
Eccentricity
0.01354
Inclination
99.5843°
RAAN
298.6378°
Arg. of periapsis
239.8628°
True anomaly
295.32012°
Mean anomaly
296.717°
Eccentric anomaly
296.01961°
Mean motion
3.6046 °/min
Orbital period
99.87 mins
BSTAR
0.00030924
Loading maneuver chart data...
Computing Atmospheric mass density...

Documentation

Showing up to 5 results
|